When you browse on this site, cookies collect data to enhance your experience and personalize the content and advertising you see.
Visit our Privacy Policy to learn more. By continuing to use the site, you agree to this use of cookies and data.
  • In Hungary
  • List of Countries
  • For 7 days
  • Water Temperature
  • Satellite Maps
  • Weather Map
  • News
  • Weather Widgets
  • user-avatar
    Login

    Hourly Weather Shilda

    Today, 13 December, Thursday

    Time Temperature Precipitation Wind Pressure Humidity
    00:00 -12°C° 0 mm 2 mps 739 mmHg 71%
    01:00 -12°C° 0 mm 2 mps 739 mmHg 71%
    02:00 -12°C° 0 mm 2 mps 739 mmHg 70%
    03:00 -12°C° 0 mm 2 mps 739 mmHg 70%
    04:00 -13°C° 0 mm 2 mps 739 mmHg 67%
    05:00 -13°C° 0 mm 2 mps 739 mmHg 66%
    06:00 -11°C° 0 mm 1 mps 739 mmHg 66%
    07:00 -11°C° 0 mm 1 mps 739 mmHg 66%
    08:00 -10°C° 0 mm 1 mps 739 mmHg 67%
    09:00 -12°C° 0 mm 2 mps 739 mmHg 68%
    10:00 -12°C° 0 mm 2 mps 739 mmHg 70%
    11:00 -10°C° 0 mm 2 mps 739 mmHg 71%
    12:00 -8°C° 0 mm 1 mps 739 mmHg 72%
    13:00 -8°C° 0 mm 1 mps 739 mmHg 72%
    14:00 -9°C° 0 mm 1 mps 738 mmHg 72%
    15:00 -10°C° 0 mm 2 mps 738 mmHg 71%
    16:00 -12°C° 0 mm 2 mps 738 mmHg 77%
    17:00 -12°C° 0 mm 2 mps 738 mmHg 78%
    18:00 -12°C° 0 mm 2 mps 739 mmHg 79%
    19:00 -12°C° 0 mm 2 mps 739 mmHg 80%
    20:00 -12°C° 0 mm 2 mps 739 mmHg 81%
    21:00 -12°C° 0 mm 2 mps 739 mmHg 82%
    22:00 -14°C° 0 mm 3 mps 739 mmHg 83%
    23:00 -14°C° 0 mm 3 mps 739 mmHg 83%

    Tomorrow, 14 December, Friday

    Time Temperature Precipitation Wind Pressure Humidity
    00:00 -14°C° 0 mm 3 mps 738 mmHg 84%
    01:00 -14°C° 0 mm 3 mps 738 mmHg 84%
    02:00 -14°C° 0 mm 3 mps 738 mmHg 85%
    03:00 -14°C° 0 mm 3 mps 738 mmHg 85%
    04:00 -14°C° 0 mm 3 mps 738 mmHg 85%
    05:00 -14°C° 0 mm 4 mps 738 mmHg 86%
    06:00 -14°C° 0 mm 4 mps 738 mmHg 86%
    07:00 -14°C° 0 mm 4 mps 738 mmHg 86%
    08:00 -14°C° 0 mm 4 mps 738 mmHg 85%
    09:00 -12°C° 0 mm 4 mps 738 mmHg 84%
    10:00 -12°C° 0 mm 5 mps 738 mmHg 84%
    11:00 -12°C° 0 mm 5 mps 738 mmHg 83%
    12:00 -12°C° 0 mm 5 mps 738 mmHg 83%
    13:00 -11°C° 0 mm 5 mps 738 mmHg 83%
    14:00 -12°C° 0 mm 5 mps 738 mmHg 85%
    15:00 -12°C° 0 mm 5 mps 738 mmHg 86%
    16:00 -13°C° 0 mm 5 mps 737 mmHg 88%
    17:00 -13°C° 0.2 mm 5 mps 737 mmHg 88%
    18:00 -12°C° 0.2 mm 5 mps 737 mmHg 89%
    19:00 -12°C° 0.2 mm 5 mps 737 mmHg 89%
    20:00 -12°C° 0.3 mm 5 mps 737 mmHg 90%
    21:00 -12°C° 0.3 mm 5 mps 737 mmHg 91%
    22:00 -12°C° 0.3 mm 5 mps 737 mmHg 92%
    23:00 -11°C° 0.4 mm 4 mps 736 mmHg 93%

    Day after tomorrow, 15 December, Saturday

    Time Temperature Precipitation Wind Pressure Humidity
    00:00 -11°C° 0.4 mm 4 mps 736 mmHg 93%
    01:00 -11°C° 0.4 mm 4 mps 736 mmHg 94%
    02:00 -10°C° 0.2 mm 3 mps 736 mmHg 95%
    03:00 -10°C° 0.2 mm 3 mps 736 mmHg 95%
    04:00 -9°C° 0.2 mm 2 mps 736 mmHg 96%
    05:00 -9°C° 0.1 mm 2 mps 736 mmHg 96%
    06:00 -9°C° 0.1 mm 2 mps 736 mmHg 96%
    07:00 -9°C° 0.1 mm 2 mps 736 mmHg 96%
    08:00 -8°C° 0 mm 1 mps 736 mmHg 96%
    09:00 -7°C° 0 mm 1 mps 736 mmHg 96%
    10:00 -7°C° 0 mm 1 mps 736 mmHg 95%
    11:00 -6°C° 0 mm 1 mps 736 mmHg 95%
    12:00 -6°C° 0 mm 1 mps 736 mmHg 94%
    13:00 -4°C° 0 mm 1 mps 736 mmHg 94%
    14:00 -4°C° 0 mm 1 mps 736 mmHg 94%
    15:00 -6°C° 0 mm 1 mps 736 mmHg 95%
    16:00 -7°C° 0 mm 1 mps 736 mmHg 96%
    17:00 -6°C° 0 mm 1 mps 736 mmHg 96%
    18:00 -7°C° 0 mm 2 mps 736 mmHg 96%
    19:00 -7°C° 0 mm 2 mps 736 mmHg 96%
    20:00 -7°C° 0 mm 2 mps 736 mmHg 96%
    21:00 -7°C° 0 mm 2 mps 736 mmHg 96%
    22:00 -7°C° 0 mm 2 mps 736 mmHg 96%
    23:00 -7°C° 0 mm 2 mps 736 mmHg 96%

    16 December, Sunday

    Time Temperature Precipitation Wind Pressure Humidity
    00:00 -7°C° 0 mm 2 mps 736 mmHg 96%
    01:00 -7°C° 0 mm 2 mps 736 mmHg 96%
    02:00 -7°C° 0 mm 2 mps 736 mmHg 96%
    03:00 -7°C° 0 mm 2 mps 736 mmHg 96%
    04:00 -7°C° 0 mm 2 mps 736 mmHg 96%
    05:00 -6°C° 0 mm 1 mps 736 mmHg 96%
    06:00 -6°C° 0 mm 1 mps 736 mmHg 96%
    07:00 -6°C° 0 mm 1 mps 736 mmHg 95%
    08:00 -4°C° 0 mm 1 mps 737 mmHg 95%
    09:00 -4°C° 0 mm 1 mps 737 mmHg 95%
    10:00 -4°C° 0 mm 1 mps 737 mmHg 95%
    11:00 -3°C° 0 mm 1 mps 737 mmHg 95%
    12:00 -3°C° 0 mm 1 mps 738 mmHg 94%
    13:00 -4°C° 0 mm 0 mps 738 mmHg 94%
    14:00 -3°C° 0 mm 1 mps 738 mmHg 94%
    15:00 -4°C° 0 mm 1 mps 738 mmHg 95%
    16:00 -4°C° 0 mm 1 mps 739 mmHg 95%
    17:00 -4°C° 0 mm 1 mps 739 mmHg 95%
    18:00 -7°C° 0 mm 2 mps 739 mmHg 95%
    19:00 -7°C° 0 mm 2 mps 739 mmHg 95%
    20:00 -7°C° 0 mm 2 mps 740 mmHg 96%
    21:00 -8°C° 0 mm 2 mps 740 mmHg 96%
    22:00 -8°C° 0 mm 2 mps 740 mmHg 96%
    23:00 -9°C° 0 mm 2 mps 740 mmHg 95%

    17 December, Monday

    Time Temperature Precipitation Wind Pressure Humidity
    00:00 -10°C° 0 mm 3 mps 741 mmHg 95%
    01:00 -12°C° 0 mm 3 mps 741 mmHg 95%
    02:00 -12°C° 0 mm 3 mps 741 mmHg 94%
    03:00 -13°C° 0 mm 3 mps 741 mmHg 94%
    04:00 -13°C° 0 mm 3 mps 741 mmHg 94%
    05:00 -14°C° 0 mm 3 mps 742 mmHg 94%
    06:00 -13°C° 0 mm 2 mps 742 mmHg 94%
    07:00 -14°C° 0 mm 2 mps 742 mmHg 94%
    08:00 -14°C° 0 mm 2 mps 742 mmHg 94%
    09:00 -14°C° 0 mm 2 mps 742 mmHg 94%
    10:00 -14°C° 0 mm 2 mps 743 mmHg 94%
    11:00 -14°C° 0 mm 2 mps 743 mmHg 94%
    12:00 -14°C° 0 mm 2 mps 743 mmHg 94%
    13:00 -12°C° 0 mm 1 mps 743 mmHg 94%
    14:00 -14°C° 0 mm 2 mps 743 mmHg 94%
    15:00 -15°C° 0 mm 2 mps 743 mmHg 95%
    16:00 -16°C° 0 mm 2 mps 743 mmHg 95%
    17:00 -16°C° 0 mm 2 mps 743 mmHg 95%
    18:00 -17°C° 0 mm 2 mps 743 mmHg 95%
    19:00 -17°C° 0 mm 2 mps 744 mmHg 95%
    20:00 -17°C° 0 mm 2 mps 744 mmHg 95%
    21:00 -18°C° 0 mm 2 mps 744 mmHg 95%
    22:00 -18°C° 0 mm 2 mps 744 mmHg 95%
    23:00 -18°C° 0 mm 2 mps 744 mmHg 95%

    18 December, Tuesday

    Time Temperature Precipitation Wind Pressure Humidity
    00:00 -18°C° 0 mm 2 mps 744 mmHg 95%
    01:00 -16°C° 0 mm 1 mps 744 mmHg 95%
    02:00 -16°C° 0 mm 1 mps 744 mmHg 95%
    03:00 -16°C° 0 mm 1 mps 744 mmHg 95%
    04:00 -16°C° 0 mm 1 mps 744 mmHg 96%
    05:00 -16°C° 0 mm 1 mps 744 mmHg 96%
    06:00 -16°C° 0 mm 1 mps 744 mmHg 96%
    07:00 -16°C° 0 mm 1 mps 744 mmHg 96%
    08:00 -15°C° 0 mm 1 mps 744 mmHg 96%
    09:00 -15°C° 0 mm 1 mps 744 mmHg 96%
    10:00 -14°C° 0 mm 1 mps 745 mmHg 95%
    11:00 -14°C° 0 mm 1 mps 744 mmHg 95%
    12:00 -13°C° 0 mm 1 mps 744 mmHg 95%
    13:00 -12°C° 0 mm 0 mps 744 mmHg 95%
    14:00 -13°C° 0 mm 0 mps 744 mmHg 95%
    15:00 -14°C° 0 mm 0 mps 744 mmHg 96%
    16:00 -15°C° 0 mm 0 mps 744 mmHg 97%
    17:00 -15°C° 0 mm 0 mps 744 mmHg 97%
    18:00 -15°C° 0 mm 0 mps 744 mmHg 98%
    19:00 -16°C° 0 mm 0 mps 744 mmHg 98%
    20:00 -15°C° 0 mm 0 mps 744 mmHg 98%
    21:00 -15°C° 0 mm 0 mps 744 mmHg 98%
    22:00 -15°C° 0 mm 1 mps 744 mmHg 98%
    23:00 -15°C° 0 mm 1 mps 743 mmHg 98%
    Show more